Regional Weather Roundup
Issued by NWS

Home | Current Version | Previous Version | Graphics & Text | Print | Product List | Glossary On
Versions: 1 2 3 4 5 6 7 8 9 10 11 12 13 14 15 16 17 18 19 20 21 22 23 24 25 26 27 28 29 30 31 32 33 34 35 36 37 38 39 40 41 42 43 44 45 46 47 48 49 50
000
ASUS43 KBIS 290102
RWRND

NORTH DAKOTA REGIONAL WEATHER ROUNDUP
NATIONAL WEATHER SERVICE BISMARCK ND
800 PM CDT SAT MAY 28 2016

NOTE: "FAIR" INDICATES FEW OR NO CLOUDS BELOW 12,000 FEET WITH NO
SIGNIFICANT WEATHER AND/OR OBSTRUCTIONS TO VISIBILITY.


NDZ001>003-009>011-017-290200-
NORTHWEST NORTH DAKOTA

CITY           SKY/WX    TMP DP  RH WIND       PRES   REMARKS
WILLISTON      MOSUNNY   62  56  80 S5        29.92S
MINOT          CLOUDY    67  54  63 N5        29.88S
MINOT AFB      MOSUNNY   65  54  69 N7        29.88R
$$

NDZ018>021-031>035-040>046-290200-
SOUTHWEST NORTH DAKOTA

CITY           SKY/WX    TMP DP  RH WIND       PRES   REMARKS
BISMARCK       RAIN      59  56  89 NE10      29.89F
DICKINSON      CLOUDY    60  54  80 N9        29.92R
GARRISON         N/A     60  56  86 NW7       29.89F
HETTINGER ARPT CLOUDY    68  52  56 N8        29.94R
$$

NDZ004>008-012>016-024-026-027-054-290200-
NORTHEAST NORTH DAKOTA

CITY           SKY/WX    TMP DP  RH WIND       PRES   REMARKS
GRAND FORKS    CLOUDY    64  58  80 E10       29.84R
GRND FRKS AFB  DRIZZLE   63  60  88 E5        29.85R
DEVILS LAKE    CLOUDY    65  59  81 N16       29.88
$$

NDZ022-023-025-028>030-036>039-047>053-290200-
SOUTHEAST NORTH DAKOTA

CITY           SKY/WX    TMP DP  RH WIND       PRES   REMARKS
FARGO          CLOUDY    64  58  80 N7        29.82R
JAMESTOWN      CLOUDY    69  54  58 NE8       29.84S
$$





USA.gov is the U.S. government's official web portal to all federal, state and local government web resources and services.